Location: Olomouc
(49.5830°N, 17.2500°E)
Time: 00:39:13
(UTC+02:00)

ISS - Visible Passes

Search period start: 16 July 2018 00:00
Search period end: 26 July 2018 00:00
Orbit: 402 x 408 km, 51.6° (Epoch: 16 July)

Date Brightness Start Highest point End Pass type
(mag) Time Alt. Az. Time Alt. Az. Time Alt. Az.
16 Jul -3.5 00:59:19 52° ESE 00:59:19 52° ESE 01:02:01 10° ENE visible
16 Jul -3.2 02:32:02 10° W 02:35:19 59° N 02:38:34 10° ENE visible
16 Jul -3.7 04:08:41 10° WNW 04:11:59 81° NNE 04:15:18 10° ESE visible
17 Jul -2.0 00:08:36 21° E 00:08:36 21° E 00:09:53 10° ENE visible
17 Jul -3.5 01:41:13 22° W 01:43:11 66° N 01:46:29 10° ENE visible
17 Jul -3.4 03:16:36 10° WNW 03:19:53 66° N 03:23:10 10° E visible
17 Jul -1.2 23:17:38 10° E 23:17:38 10° E 23:17:39 10° E visible
18 Jul -3.8 00:50:13 46° W 00:51:03 82° NNW 00:54:22 10° ENE visible
18 Jul -3.2 02:24:28 10° WNW 02:27:44 59° N 02:31:01 10° E visible
18 Jul -3.9 04:01:02 10° WNW 04:04:19 66° SSW 04:07:35 10° ESE visible
18 Jul -4.0 23:58:12 48° SW 23:58:58 75° SSE 00:02:16 10° ENE visible
19 Jul -3.2 01:32:19 10° W 01:35:35 58° N 01:38:50 10° ENE visible
19 Jul -3.9 03:08:55 10° WNW 03:12:14 89° NNE 03:15:32 10° ESE visible
19 Jul -1.8 21:30:12 10° SSE 21:31:02 11° SE 21:31:53 10° ESE visible
19 Jul -3.7 23:03:43 10° SW 23:06:55 50° SSE 23:10:07 10° ENE visible
20 Jul -3.4 00:40:08 10° W 00:43:24 62° N 00:46:41 10° ENE visible
20 Jul -3.6 02:16:49 10° WNW 02:20:06 71° NNE 02:23:24 10° E visible
20 Jul -3.3 03:53:24 10° W 03:56:29 37° SSW 03:59:33 10° SE visible
20 Jul -3.1 22:11:56 10° SSW 22:14:54 32° SSE 22:17:53 10° E visible
20 Jul -3.7 23:47:57 10° W 23:51:14 75° NNW 23:54:32 10° ENE visible
21 Jul -3.3 01:24:39 10° WNW 01:27:55 60° N 01:31:11 10° E visible
21 Jul -3.8 03:01:12 10° WNW 03:04:27 56° SSW 03:07:41 10° SE visible
21 Jul -4.0 22:55:48 10° WSW 22:59:05 84° SSE 23:02:24 10° ENE visible
22 Jul -3.2 00:32:28 10° W 00:35:43 57° N 00:38:59 10° E visible
22 Jul -4.0 02:09:03 10° WNW 02:12:21 82° SSW 02:15:39 10° ESE visible
22 Jul -2.5 03:45:59 10° W 03:48:30 20° SW 03:51:00 10° S visible
22 Jul -3.8 22:03:45 10° SW 22:06:59 59° SSE 22:10:13 10° ENE visible
22 Jul -3.3 23:40:15 10° W 23:43:31 60° N 23:46:47 10° ENE visible
23 Jul -3.7 01:16:53 10° WNW 01:20:12 76° NNE 01:20:48 55° E visible
23 Jul -3.5 22:48:02 10° W 22:51:18 69° NNW 22:54:35 10° ENE visible
24 Jul -3.4 00:24:43 10° WNW 00:28:00 63° N 00:29:05 37° ENE visible
24 Jul -1.3 02:01:17 10° WNW 02:01:40 13° WNW 02:01:40 13° WNW visible
24 Jul -3.8 21:55:49 10° WSW 21:59:07 87° N 22:02:24 10° ENE visible
24 Jul -3.2 23:32:31 10° WNW 23:35:45 58° N 23:38:04 18° E visible
25 Jul -2.2 01:09:04 10° WNW 01:10:41 26° WNW 01:10:41 26° WNW visible
25 Jul -3.2 22:40:16 10° W 22:43:31 58° N 22:46:46 10° ENE visible
